PulseSat

PulseSat

GSAT0213 (GALILEO 17)

Last updated on Feb. 16, 2019, 3:04 a.m. UTC

1 41861U 16069C   19045.45033524  .00000029  00000-0  00000-0 0  9998
2 41861  54.5953 175.4352 0002357 260.0037  99.9311  1.70473781 13975
UTC
Height (km)
Latitude
Longitude
Inclination
Orbital Period

Next 30 passes for location: Hong Kong

Rise time Rise Azimuth (degrees) Set time Set Azimuth (degrees) Duration Max altitude (degrees)

No matching passes for this satellites

PulseSat

PulseSat is the new satellites software and hardware trackering solution by Pulsely.
Satellite Two Line Element Set source: US Air Force Space Command

Download PulseSat for iOS
© 2017 Pulsely Limited